Total_Precipitation_Accumulation
1.25 1.25 1.78 2.63 2.68 2.04 1.62 1.15 0.68 0.70 0.58 0.35 0.27 0.28 0.52 0.91 1.13 1.33 1.20 0.85 0.49 0.38 0.41 0.65 0.88 0.82 0.78 0.72 0.67 0.66 0.67 0.68 0.60 0.55 0.54 0.48 0.38 0.35 0.34 0.32 0.30 0.29 0.33 0.31 0.31 0.34 0.39 0.46 0.54
1.11 1.72 2.44 3.04 2.42 1.81 1.68 1.21 0.89 0.61 0.37 0.26 0.24 0.24 0.41 0.50 0.44 0.69 1.22 1.09 0.49 0.43 0.46 0.55 0.87 0.87 0.85 0.77 0.72 0.71 0.69 0.66 0.58 0.52 0.49 0.44 0.38 0.36 0.36 0.33 0.31 0.30 0.31 0.34 0.35 0.35 0.40 0.45 0.52
1.44 2.22 2.92 2.75 1.90 1.67 1.67 1.17 0.81 0.39 0.24 0.27 0.29 0.28 0.39 0.55 0.55 0.84 1.11 0.75 0.45 0.43 0.48 0.65 0.92 0.89 0.89 0.84 0.85 0.88 0.80 0.73 0.64 0.55 0.52 0.50 0.46 0.38 0.35 0.33 0.31 0.32 0.33 0.35 0.36 0.38 0.42 0.47 0.48
1.69 2.38 2.47 2.02 1.60 1.29 1.04 0.89 0.55 0.39 0.29 0.19 0.21 0.31 0.32 0.48 0.60 0.79 0.70 0.48 0.44 0.46 0.47 0.63 0.85 0.82 0.84 0.86 0.88 0.89 0.77 0.70 0.62 0.54 0.53 0.54 0.50 0.44 0.40 0.40 0.42 0.40 0.42 0.41 0.42 0.42 0.47 0.48 0.48
1.98 2.32 2.10 1.64 1.51 1.13 0.81 0.65 0.47 0.55 0.46 0.27 0.21 0.32 0.43 0.54 0.57 0.64 0.65 0.53 0.52 0.53 0.46 0.51 0.72 0.77 0.81 0.79 0.74 0.81 0.78 0.73 0.61 0.54 0.52 0.51 0.48 0.48 0.48 0.51 0.52 0.52 0.52 0.50 0.51 0.50 0.47 0.48 0.53
2.11 2.01 1.82 1.60 1.60 1.29 1.05 0.73 0.55 0.60 0.47 0.28 0.23 0.39 0.52 0.62 0.69 0.70 0.68 0.69 0.65 0.63 0.53 0.48 0.61 0.70 0.72 0.71 0.76 0.86 0.85 0.77 0.62 0.52 0.52 0.51 0.52 0.51 0.52 0.53 0.53 0.58 0.64 0.63 0.58 0.57 0.49 0.49 0.55
2.29 1.99 1.61 1.29 1.43 1.65 1.24 0.85 0.74 0.67 0.55 0.39 0.26 0.46 0.55 0.59 0.61 0.65 0.70 0.79 0.90 0.89 0.75 0.61 0.60 0.65 0.75 0.81 0.85 0.96 0.99 0.91 0.73 0.59 0.59 0.59 0.54 0.50 0.50 0.54 0.56 0.58 0.62 0.64 0.62 0.61 0.56 0.54 0.55
1.94 1.83 1.45 1.36 1.47 1.72 1.24 0.87 0.70 0.63 0.55 0.35 0.29 0.48 0.69 0.57 0.56 0.66 0.69 0.81 0.89 0.93 0.88 0.80 0.74 0.75 0.82 0.88 1.02 1.12 1.22 1.32 1.07 0.79 0.70 0.65 0.55 0.50 0.52 0.54 0.57 0.60 0.69 0.69 0.67 0.68 0.64 0.65 0.61
1.87 2.00 1.77 1.85 1.73 1.33 0.92 0.88 0.64 0.49 0.49 0.43 0.32 0.31 0.41 0.45 0.46 0.58 0.65 0.69 0.67 0.68 0.72 0.77 0.80 0.86 0.87 0.82 0.89 1.12 1.29 1.47 1.20 0.84 0.85 0.77 0.55 0.56 0.60 0.60 0.72 0.77 0.81 0.82 0.82 0.83 0.82 0.80 0.71
1.93 1.84 1.58 1.46 1.25 1.04 0.89 0.80 0.59 0.59 0.66 0.58 0.46 0.36 0.38 0.43 0.48 0.54 0.56 0.58 0.55 0.55 0.52 0.54 0.57 0.66 0.73 0.72 0.93 1.18 1.22 1.35 1.09 0.92 0.95 0.92 0.97 0.91 0.70 0.69 0.88 0.98 1.04 0.98 0.96 0.99 0.92 0.80 0.63
1.49 1.47 1.12 0.89 0.69 0.66 0.67 0.59 0.46 0.57 0.73 0.51 0.41 0.40 0.41 0.46 0.46 0.47 0.48 0.47 0.44 0.43 0.40 0.39 0.41 0.44 0.53 0.74 0.98 1.20 1.25 1.29 1.33 1.36 1.22 1.20 1.16 0.96 0.79 0.76 0.80 0.87 0.95 0.90 0.99 0.99 0.84 0.74 0.62
1.34 1.12 0.91 0.80 0.59 0.53 0.53 0.47 0.50 0.48 0.50 0.37 0.30 0.32 0.41 0.48 0.44 0.40 0.43 0.47 0.48 0.46 0.44 0.38 0.30 0.31 0.39 0.53 0.75 1.03 1.10 1.16 1.24 1.24 1.04 1.13 1.13 0.95 0.89 0.97 1.00 0.97 0.95 1.07 1.11 1.07 1.01 0.84 0.65
1.28 1.04 0.78 0.56 0.50 0.45 0.46 0.49 0.44 0.35 0.31 0.29 0.30 0.38 0.49 0.53 0.47 0.36 0.35 0.40 0.46 0.54 0.61 0.59 0.43 0.37 0.39 0.45 0.50 0.64 0.74 0.85 1.13 1.21 0.95 0.93 0.95 0.99 1.02 0.93 1.07 1.13 1.13 1.13 1.11 1.02 0.96 0.94 0.81
1.12 0.85 0.64 0.50 0.47 0.45 0.48 0.46 0.39 0.40 0.34 0.30 0.33 0.41 0.50 0.56 0.52 0.45 0.39 0.37 0.35 0.38 0.50 0.57 0.55 0.54 0.52 0.45 0.40 0.40 0.46 0.59 0.74 0.76 0.72 0.75 0.78 0.88 1.05 0.98 0.97 1.05 1.23 1.28 1.21 1.10 1.10 1.07 0.90
0.74 0.70 0.69 0.59 0.53 0.53 0.57 0.63 0.42 0.36 0.33 0.30 0.27 0.29 0.33 0.38 0.42 0.42 0.36 0.29 0.28 0.28 0.33 0.43 0.50 0.56 0.58 0.59 0.58 0.48 0.47 0.54 0.56 0.56 0.62 0.69 0.69 0.82 0.99 0.95 0.86 0.83 0.99 1.17 1.29 1.31 1.24 1.09 0.98
0.83 0.77 0.99 0.74 0.65 0.60 0.68 0.71 0.37 0.33 0.29 0.27 0.24 0.22 0.22 0.24 0.26 0.29 0.32 0.30 0.27 0.26 0.25 0.31 0.36 0.43 0.53 0.62 0.69 0.66 0.62 0.58 0.52 0.49 0.47 0.50 0.52 0.61 0.80 0.88 0.79 0.78 0.95 1.15 1.32 1.41 1.44 1.30 1.23
1.00 0.92 0.85 0.75 0.60 0.50 0.48 0.48 0.35 0.28 0.24 0.21 0.17 0.16 0.15 0.17 0.19 0.20 0.20 0.22 0.25 0.26 0.24 0.24 0.29 0.33 0.40 0.51 0.58 0.58 0.57 0.54 0.52 0.52 0.41 0.39 0.41 0.53 0.73 0.91 0.95 0.95 1.05 1.17 1.22 1.40 1.46 1.50 1.39
0.73 0.63 0.60 0.51 0.43 0.36 0.32 0.29 0.26 0.22 0.19 0.16 0.13 0.14 0.12 0.10 0.12 0.15 0.15 0.17 0.24 0.25 0.24 0.24 0.26 0.27 0.31 0.36 0.43 0.48 0.46 0.44 0.50 0.49 0.47 0.51 0.58 0.65 0.84 1.06 1.15 1.27 1.29 1.33 1.48 1.74 1.73 1.58 1.52
0.55 0.46 0.40 0.30 0.24 0.22 0.22 0.23 0.23 0.19 0.16 0.16 0.14 0.12 0.13 0.09 0.11 0.08 0.07 0.09 0.15 0.19 0.18 0.19 0.24 0.27 0.25 0.24 0.29 0.34 0.35 0.44 0.51 0.59 0.64 0.69 0.72 0.79 1.00 1.21 1.45 1.58 1.46 1.46 1.63 1.88 2.03 1.84 1.67
0.56 0.49 0.38 0.33 0.22 0.18 0.20 0.23 0.21 0.17 0.14 0.13 0.11 0.09 0.09 0.08 0.09 0.07 0.05 0.04 0.04 0.06 0.09 0.13 0.15 0.18 0.18 0.18 0.23 0.32 0.39 0.45 0.58 0.74 0.85 0.87 0.85 0.90 0.95 1.15 1.36 1.43 1.47 1.50 1.59 1.78 2.08 1.99 1.78
0.46 0.40 0.32 0.32 0.26 0.22 0.25 0.27 0.21 0.19 0.14 0.11 0.09 0.11 0.11 0.09 0.07 0.07 0.05 0.05 0.04 0.04 0.04 0.07 0.12 0.16 0.16 0.23 0.41 0.68 0.92 1.01 1.02 1.04 1.19 1.28 1.24 1.19 1.16 1.19 1.34 1.42 1.54 1.55 1.59 1.64 1.85 1.97 1.89
0.48 0.33 0.27 0.29 0.32 0.28 0.23 0.28 0.19 0.18 0.17 0.15 0.13 0.13 0.13 0.12 0.10 0.07 0.06 0.07 0.04 0.04 0.05 0.06 0.11 0.16 0.20 0.36 0.68 1.07 1.40 1.48 1.49 1.61 1.66 1.71 1.63 1.50 1.48 1.48 1.57 1.52 1.50 1.47 1.49 1.50 1.65 1.93 1.98
0.46 0.36 0.34 0.33 0.32 0.26 0.14 0.17 0.15 0.15 0.20 0.22 0.21 0.21 0.22 0.18 0.15 0.11 0.08 0.07 0.09 0.11 0.13 0.15 0.21 0.34 0.51 0.66 0.83 1.13 1.32 1.44 1.58 1.74 1.88 1.99 2.11 2.08 2.00 1.93 1.78 1.61 1.52 1.53 1.56 1.56 1.63 1.71 1.81
0.34 0.38 0.45 0.39 0.37 0.35 0.13 0.12 0.16 0.20 0.23 0.26 0.27 0.28 0.26 0.21 0.14 0.12 0.11 0.12 0.17 0.25 0.28 0.32 0.41 0.51 0.58 0.70 0.84 0.98 1.07 1.23 1.43 1.58 1.75 1.88 2.01 2.03 1.97 1.84 1.62 1.45 1.39 1.45 1.56 1.58 1.62 1.61 1.66
0.32 0.42 0.58 0.59 0.55 0.39 0.12 0.13 0.19 0.19 0.18 0.21 0.22 0.20 0.17 0.17 0.16 0.15 0.15 0.20 0.25 0.34 0.38 0.45 0.53 0.63 0.65 0.73 0.83 0.91 0.97 1.10 1.27 1.32 1.36 1.39 1.38 1.42 1.45 1.46 1.42 1.37 1.30 1.37 1.55 1.62 1.66 1.66 1.63
0.26 0.31 0.50 0.58 0.47 0.30 0.12 0.18 0.25 0.17 0.11 0.09 0.11 0.12 0.14 0.19 0.21 0.21 0.20 0.28 0.34 0.41 0.52 0.60 0.68 0.70 0.72 0.80 0.89 0.90 0.99 1.11 1.21 1.15 1.10 1.12 1.16 1.24 1.25 1.32 1.34 1.32 1.32 1.33 1.40 1.51 1.62 1.65 1.58
0.21 0.22 0.25 0.30 0.23 0.21 0.14 0.17 0.16 0.07 0.06 0.05 0.10 0.15 0.21 0.28 0.30 0.31 0.33 0.38 0.41 0.50 0.61 0.68 0.73 0.76 0.83 0.86 0.95 1.09 1.13 1.13 1.11 1.00 0.95 0.96 0.92 0.93 1.04 1.15 1.21 1.16 1.18 1.22 1.31 1.44 1.49 1.58 1.64
0.15 0.17 0.21 0.26 0.27 0.26 0.18 0.17 0.14 0.09 0.10 0.13 0.17 0.24 0.35 0.44 0.46 0.47 0.53 0.56 0.56 0.57 0.65 0.73 0.81 0.87 0.90 0.92 1.03 1.20 1.14 0.92 0.76 0.66 0.70 0.74 0.78 0.82 0.89 0.86 0.82 0.81 0.87 0.89 0.99 1.16 1.25 1.29 1.38
0.15 0.13 0.15 0.20 0.20 0.31 0.41 0.46 0.47 0.45 0.38 0.42 0.43 0.49 0.64 0.68 0.69 0.69 0.70 0.72 0.67 0.68 0.73 0.78 0.83 0.94 0.97 0.93 1.03 1.06 0.85 0.61 0.49 0.47 0.45 0.44 0.47 0.52 0.60 0.55 0.52 0.58 0.62 0.59 0.68 0.78 0.90 0.99 1.04
0.13 0.12 0.10 0.18 0.19 0.26 0.44 0.59 0.65 0.70 0.68 0.79 0.85 0.96 0.89 0.83 0.83 0.77 0.70 0.68 0.58 0.58 0.67 0.75 0.84 0.90 0.84 0.80 0.79 0.65 0.47 0.37 0.34 0.30 0.25 0.22 0.22 0.22 0.29 0.32 0.32 0.40 0.51 0.52 0.58 0.63 0.65 0.71 0.76